MOLNIYA 3-47

Last updated on Nov. 18, 2019, 4:21 a.m. UTC

1 23642U 95042A   19320.99592876 -.00000471  00000-0  33982-1 0  9996
2 23642  63.1857 179.5168 6873479 289.1449  12.0975  2.01936310178057
UTC
Height (km)
Latitude
Longitude
Inclination
Orbital Period
UTC large
Height (km)
Speed (km/s)
/
Latitude / Longitude
Inclination (degrees)
Orbital Period (minutes)
Azimuth
Elevation
Range (km)
Doppler Factor
iOS Compass Heading
iOS Angle

Next 30 passes for location: Hong Kong

Rise time Rise Azimuth (degrees) Set time Set Azimuth (degrees) Duration Max altitude (degrees)

No matching passes for this satellites